Time,TemperatureF,DewpointF,PressureIn,WindDirection,WindDirectionDegrees,WindSpeedMPH,WindSpeedGustMPH,Humidity,HourlyPrecipIn,Conditions,Clouds,dailyrainin,SoftwareType,DateUTC
2013-06-06 00:08:00,52.1,49.0,29.99,ESE,113,0.0,-999.0,90,-99.99,,,0.31,weatherlink.com 1.10,2013-06-06 05:08:00,
2013-06-06 00:23:00,51.9,50.0,29.99,ENE,66,0.0,-999.0,92,-99.99,,,0.00,weatherlink.com 1.10,2013-06-06 05:23:00,
2013-06-06 00:38:00,51.5,50.0,30.00,ENE,66,0.0,-999.0,93,-99.99,,,0.04,weatherlink.com 1.10,2013-06-06 05:38:00,
2013-06-06 00:53:00,51.2,50.0,30.00,NNE,19,0.0,-999.0,94,-99.99,,,0.04,weatherlink.com 1.10,2013-06-06 05:53:00,
2013-06-06 01:08:00,50.8,49.0,29.99,ENE,67,4.0,-999.0,94,-99.99,,,0.04,weatherlink.com 1.10,2013-06-06 06:08:00,
2013-06-06 01:23:00,50.7,49.0,29.99,ENE,69,0.0,-999.0,95,-99.99,,,0.06,weatherlink.com 1.10,2013-06-06 06:23:00,
2013-06-06 01:38:00,50.5,49.0,29.98,NE,49,0.0,-999.0,95,-99.99,,,0.12,weatherlink.com 1.10,2013-06-06 06:38:00,
2013-06-06 01:53:00,50.4,49.0,29.98,ENE,65,4.0,-999.0,95,-99.99,,,0.14,weatherlink.com 1.10,2013-06-06 06:53:00,
2013-06-06 02:08:00,50.3,49.0,29.98,East,99,1.0,-999.0,95,-99.99,,,0.14,weatherlink.com 1.10,2013-06-06 07:08:00,
2013-06-06 02:23:00,50.2,49.0,29.97,ENE,65,4.0,-999.0,96,-99.99,,,0.14,weatherlink.com 1.10,2013-06-06 07:23:00,
2013-06-06 02:38:00,50.2,49.0,29.97,East,91,2.0,-999.0,96,-99.99,,,0.14,weatherlink.com 1.10,2013-06-06 07:38:00,
2013-06-06 02:53:00,50.2,49.0,29.97,East,84,2.0,-999.0,96,-99.99,,,0.14,weatherlink.com 1.10,2013-06-06 07:53:00,
2013-06-06 03:08:00,50.2,49.0,29.97,ENE,74,2.0,-999.0,96,-99.99,,,0.15,weatherlink.com 1.10,2013-06-06 08:08:00,
2013-06-06 03:23:00,50.2,49.0,29.96,East,80,1.0,-999.0,96,-99.99,,,0.16,weatherlink.com 1.10,2013-06-06 08:23:00,
2013-06-06 03:38:00,50.3,49.0,29.96,NE,48,0.0,-999.0,96,-99.99,,,0.18,weatherlink.com 1.10,2013-06-06 08:38:00,
2013-06-06 03:53:00,50.4,49.0,29.96,ENE,71,3.0,-999.0,96,-99.99,,,0.18,weatherlink.com 1.10,2013-06-06 08:53:00,
2013-06-06 04:08:00,50.4,49.0,29.96,NE,46,4.0,-999.0,96,-99.99,,,0.18,weatherlink.com 1.10,2013-06-06 09:08:00,
2013-06-06 04:23:00,50.4,49.0,29.96,ESE,115,4.0,-999.0,96,-99.99,,,0.18,weatherlink.com 1.10,2013-06-06 09:23:00,
2013-06-06 04:38:00,50.5,49.0,29.96,ENE,76,2.0,-999.0,96,-99.99,,,0.18,weatherlink.com 1.10,2013-06-06 09:38:00,
2013-06-06 04:53:00,50.5,49.0,29.96,ESE,119,0.0,-999.0,96,-99.99,,,0.18,weatherlink.com 1.10,2013-06-06 09:53:00,
2013-06-06 05:08:00,50.5,49.0,29.96,ENE,74,0.0,-999.0,96,-99.99,,,0.18,weatherlink.com 1.10,2013-06-06 10:08:00,
2013-06-06 05:23:00,50.6,50.0,29.96,East,84,3.0,-999.0,96,-99.99,,,0.18,weatherlink.com 1.10,2013-06-06 10:23:00,
2013-06-06 05:38:00,50.6,50.0,29.96,East,94,4.0,-999.0,96,-99.99,,,0.18,weatherlink.com 1.10,2013-06-06 10:38:00,
2013-06-06 05:53:00,50.6,50.0,29.96,ESE,109,6.0,-999.0,96,-99.99,,,0.18,weatherlink.com 1.10,2013-06-06 10:53:00,
2013-06-06 06:08:00,50.6,50.0,29.96,NE,43,1.0,-999.0,96,-99.99,,,0.18,weatherlink.com 1.10,2013-06-06 11:08:00,
2013-06-06 06:23:00,50.5,49.0,29.96,East,84,1.0,-999.0,96,-99.99,,,0.18,weatherlink.com 1.10,2013-06-06 11:23:00,
2013-06-06 06:38:00,50.6,50.0,29.96,ENE,59,2.0,-999.0,96,-99.99,,,0.18,weatherlink.com 1.10,2013-06-06 11:38:00,
2013-06-06 06:53:00,50.6,50.0,29.97,ESE,107,0.0,-999.0,96,-99.99,,,0.18,weatherlink.com 1.10,2013-06-06 11:53:00,
2013-06-06 07:08:00,50.6,50.0,29.97,NE,42,5.0,-999.0,96,-99.99,,,0.18,weatherlink.com 1.10,2013-06-06 12:08:00,
2013-06-06 07:23:00,50.7,50.0,29.97,East,94,1.0,-999.0,96,-99.99,,,0.18,weatherlink.com 1.10,2013-06-06 12:23:00,
2013-06-06 07:38:00,50.7,50.0,29.97,East,92,2.0,-999.0,96,-99.99,,,0.18,weatherlink.com 1.10,2013-06-06 12:38:00,
2013-06-06 07:53:00,50.8,50.0,29.97,East,88,4.0,-999.0,96,-99.99,,,0.19,weatherlink.com 1.10,2013-06-06 12:53:00,
2013-06-06 08:08:00,50.8,50.0,29.97,NE,41,3.0,-999.0,96,-99.99,,,0.19,weatherlink.com 1.10,2013-06-06 13:08:00,
2013-06-06 08:23:00,50.9,50.0,29.97,ENE,68,4.0,-999.0,96,-99.99,,,0.19,weatherlink.com 1.10,2013-06-06 13:23:00,
2013-06-06 08:38:00,51.1,50.0,29.97,ENE,67,3.0,-999.0,96,-99.99,,,0.19,weatherlink.com 1.10,2013-06-06 13:38:00,
2013-06-06 08:53:00,51.5,50.0,29.97,East,99,6.0,-999.0,96,-99.99,,,0.19,weatherlink.com 1.10,2013-06-06 13:53:00,
2013-06-06 09:08:00,51.7,51.0,29.97,East,79,0.0,-999.0,97,-99.99,,,0.19,weatherlink.com 1.10,2013-06-06 14:08:00,
2013-06-06 09:23:00,51.8,51.0,29.97,East,87,3.0,-999.0,96,-99.99,,,0.19,weatherlink.com 1.10,2013-06-06 14:23:00,
2013-06-06 09:38:00,51.9,51.0,29.98,ESE,112,2.0,-999.0,96,-99.99,,,0.19,weatherlink.com 1.10,2013-06-06 14:38:00,
2013-06-06 09:53:00,52.2,51.0,29.98,ENE,66,0.0,-999.0,96,-99.99,,,0.19,weatherlink.com 1.10,2013-06-06 14:53:00,
2013-06-06 10:08:00,52.5,51.0,29.98,SE,130,1.0,-999.0,96,-99.99,,,0.19,weatherlink.com 1.10,2013-06-06 15:08:00,
2013-06-06 10:23:00,52.9,52.0,29.98,ENE,60,4.0,-999.0,96,-99.99,,,0.19,weatherlink.com 1.10,2013-06-06 15:23:00,
2013-06-06 10:38:00,53.2,52.0,29.98,NE,44,4.0,-999.0,95,-99.99,,,0.19,weatherlink.com 1.10,2013-06-06 15:38:00,
2013-06-06 10:53:00,54.0,53.0,29.98,SE,145,0.0,-999.0,95,-99.99,,,0.19,weatherlink.com 1.10,2013-06-06 15:53:00,
2013-06-06 11:08:00,54.7,53.0,29.98,ENE,59,0.0,-999.0,94,-99.99,,,0.19,weatherlink.com 1.10,2013-06-06 16:08:00,
2013-06-06 11:23:00,55.5,54.0,29.97,ESE,117,1.0,-999.0,94,-99.99,,,0.19,weatherlink.com 1.10,2013-06-06 16:23:00,
2013-06-06 11:38:00,55.6,53.0,29.98,ESE,105,1.0,-999.0,91,-99.99,,,0.19,weatherlink.com 1.10,2013-06-06 16:38:00,
2013-06-06 11:53:00,56.0,54.0,29.98,ENE,78,5.0,-999.0,91,-99.99,,,0.19,weatherlink.com 1.10,2013-06-06 16:53:00,
2013-06-06 12:08:00,55.5,53.0,29.98,ESE,104,1.0,-999.0,91,-99.99,,,0.19,weatherlink.com 1.10,2013-06-06 17:08:00,
2013-06-06 12:23:00,55.9,53.0,29.98,ESE,122,0.0,-999.0,91,-99.99,,,0.19,weatherlink.com 1.10,2013-06-06 17:23:00,
2013-06-06 12:39:00,55.8,53.0,29.98,SE,138,6.0,-999.0,90,-99.99,,,0.19,weatherlink.com 1.10,2013-06-06 17:39:00,
2013-06-06 12:54:00,55.1,53.0,29.98,East,89,5.0,-999.0,91,-99.99,,,0.19,weatherlink.com 1.10,2013-06-06 17:54:00,
2013-06-06 13:09:00,54.8,53.0,29.98,East,94,4.0,-999.0,92,-99.99,,,0.19,weatherlink.com 1.10,2013-06-06 18:09:00,
2013-06-06 13:24:00,55.0,53.0,29.98,East,86,1.0,-999.0,92,-99.99,,,0.19,weatherlink.com 1.10,2013-06-06 18:24:00,
2013-06-06 13:39:00,55.0,53.0,29.98,East,92,11.0,-999.0,91,-99.99,,,0.19,weatherlink.com 1.10,2013-06-06 18:39:00,
2013-06-06 13:54:00,55.0,53.0,29.98,ENE,69,6.0,-999.0,91,-99.99,,,0.19,weatherlink.com 1.10,2013-06-06 18:54:00,
2013-06-06 14:09:00,54.9,52.0,29.98,ENE,69,0.0,-999.0,91,-99.99,,,0.19,weatherlink.com 1.10,2013-06-06 19:09:00,
2013-06-06 14:24:00,54.9,52.0,29.98,East,85,4.0,-999.0,91,-99.99,,,0.19,weatherlink.com 1.10,2013-06-06 19:24:00,
2013-06-06 14:39:00,55.0,53.0,29.98,East,98,0.0,-999.0,91,-99.99,,,0.19,weatherlink.com 1.10,2013-06-06 19:39:00,
2013-06-06 14:54:00,55.0,52.0,29.98,ESE,109,0.0,-999.0,90,-99.99,,,0.19,weatherlink.com 1.10,2013-06-06 19:54:00,
2013-06-06 15:09:00,55.1,52.0,29.98,East,86,0.0,-999.0,90,-99.99,,,0.19,weatherlink.com 1.10,2013-06-06 20:09:00,
2013-06-06 15:24:00,54.9,52.0,29.98,East,82,0.0,-999.0,90,-99.99,,,0.19,weatherlink.com 1.10,2013-06-06 20:24:00,
2013-06-06 15:39:00,54.8,52.0,29.98,ESE,119,4.0,-999.0,91,-99.99,,,0.19,weatherlink.com 1.10,2013-06-06 20:39:00,
2013-06-06 15:54:00,55.3,53.0,29.98,ENE,66,3.0,-999.0,90,-99.99,,,0.19,weatherlink.com 1.10,2013-06-06 20:54:00,
2013-06-06 16:09:00,55.0,52.0,29.98,East,85,3.0,-999.0,90,-99.99,,,0.19,weatherlink.com 1.10,2013-06-06 21:09:00,
2013-06-06 16:24:00,55.1,52.0,29.98,East,88,1.0,-999.0,90,-99.99,,,0.19,weatherlink.com 1.10,2013-06-06 21:24:00,
2013-06-06 16:39:00,55.0,52.0,29.99,East,85,4.0,-999.0,90,-99.99,,,0.19,weatherlink.com 1.10,2013-06-06 21:39:00,
2013-06-06 16:54:00,54.8,52.0,29.99,ENE,57,0.0,-999.0,91,-99.99,,,0.19,weatherlink.com 1.10,2013-06-06 21:54:00,
2013-06-06 17:09:00,54.7,52.0,29.99,NE,53,3.0,-999.0,90,-99.99,,,0.19,weatherlink.com 1.10,2013-06-06 22:09:00,
2013-06-06 17:24:00,54.9,52.0,29.99,East,91,2.0,-999.0,90,-99.99,,,0.19,weatherlink.com 1.10,2013-06-06 22:24:00,
2013-06-06 17:39:00,54.8,52.0,29.99,ENE,69,0.0,-999.0,90,-99.99,,,0.19,weatherlink.com 1.10,2013-06-06 22:39:00,
2013-06-06 17:54:00,54.8,52.0,29.99,NE,47,3.0,-999.0,90,-99.99,,,0.19,weatherlink.com 1.10,2013-06-06 22:54:00,
2013-06-06 18:09:00,54.8,52.0,29.99,East,90,0.0,-999.0,91,-99.99,,,0.19,weatherlink.com 1.10,2013-06-06 23:09:00,
2013-06-06 18:24:00,54.5,52.0,29.99,East,91,2.0,-999.0,90,-99.99,,,0.19,weatherlink.com 1.10,2013-06-06 23:24:00,
2013-06-06 18:39:00,54.3,52.0,29.99,ENE,69,10.0,-999.0,90,-99.99,,,0.19,weatherlink.com 1.10,2013-06-06 23:39:00,
2013-06-06 18:54:00,54.2,51.0,29.99,ENE,65,0.0,-999.0,90,-99.99,,,0.19,weatherlink.com 1.10,2013-06-06 23:54:00,
2013-06-06 19:09:00,54.2,51.0,29.99,East,80,2.0,-999.0,90,-99.99,,,0.19,weatherlink.com 1.10,2013-06-07 00:09:00,
2013-06-06 19:24:00,54.1,51.0,29.99,NE,49,3.0,-999.0,90,-99.99,,,0.19,weatherlink.com 1.10,2013-06-07 00:24:00,
2013-06-06 19:39:00,53.9,51.0,29.99,ENE,75,4.0,-999.0,91,-99.99,,,0.19,weatherlink.com 1.10,2013-06-07 00:39:00,
2013-06-06 19:54:00,53.7,51.0,29.99,ENE,78,0.0,-999.0,91,-99.99,,,0.19,weatherlink.com 1.10,2013-06-07 00:54:00,
2013-06-06 20:09:00,53.5,51.0,29.99,ENE,72,0.0,-999.0,90,-99.99,,,0.19,weatherlink.com 1.10,2013-06-07 01:09:00,
2013-06-06 20:24:00,53.3,51.0,29.99,ENE,64,0.0,-999.0,91,-99.99,,,0.19,weatherlink.com 1.10,2013-06-07 01:24:00,
2013-06-06 20:39:00,53.0,50.0,29.98,NE,51,0.0,-999.0,90,-99.99,,,0.19,weatherlink.com 1.10,2013-06-07 01:39:00,
2013-06-06 20:54:00,52.8,50.0,29.98,NE,52,0.0,-999.0,90,-99.99,,,0.19,weatherlink.com 1.10,2013-06-07 01:54:00,
2013-06-06 21:09:00,52.7,50.0,29.98,NE,50,0.0,-999.0,91,-99.99,,,0.19,weatherlink.com 1.10,2013-06-07 02:09:00,
2013-06-06 21:24:00,52.6,50.0,29.99,NE,50,1.0,-999.0,91,-99.99,,,0.19,weatherlink.com 1.10,2013-06-07 02:24:00,
2013-06-06 21:39:00,52.5,50.0,30.00,NE,50,0.0,-999.0,91,-99.99,,,0.19,weatherlink.com 1.10,2013-06-07 02:39:00,
2013-06-06 21:54:00,52.4,50.0,30.00,NE,50,0.0,-999.0,91,-99.99,,,0.19,weatherlink.com 1.10,2013-06-07 02:54:00,
2013-06-06 22:09:00,52.4,50.0,30.00,NE,50,0.0,-999.0,91,-99.99,,,0.19,weatherlink.com 1.10,2013-06-07 03:09:00,
2013-06-06 22:24:00,52.3,50.0,30.00,NE,50,0.0,-999.0,91,-99.99,,,0.19,weatherlink.com 1.10,2013-06-07 03:24:00,
2013-06-06 22:39:00,52.2,50.0,30.00,NE,50,0.0,-999.0,91,-99.99,,,0.19,weatherlink.com 1.10,2013-06-07 03:39:00,
2013-06-06 22:54:00,52.1,50.0,30.00,NE,50,0.0,-999.0,91,-99.99,,,0.19,weatherlink.com 1.10,2013-06-07 03:54:00,
2013-06-06 23:09:00,51.8,50.0,29.99,NE,50,0.0,-999.0,92,-99.99,,,0.19,weatherlink.com 1.10,2013-06-07 04:09:00,
2013-06-06 23:24:00,51.7,50.0,30.00,NE,50,0.0,-999.0,92,-99.99,,,0.19,weatherlink.com 1.10,2013-06-07 04:24:00,
2013-06-06 23:39:00,51.5,49.0,30.00,NE,50,0.0,-999.0,92,-99.99,,,0.19,weatherlink.com 1.10,2013-06-07 04:39:00,
2013-06-06 23:54:00,51.4,49.0,30.00,NE,50,0.0,-999.0,92,-99.99,,,0.19,weatherlink.com 1.10,2013-06-07 04:54:00,